| time (UTC) | temp C | wind direction | speed KPH | gust KPH | rain 1hr cm | rain 24hr cm | rain mn cm | humidity % | barometer mb |
| 20260507012809 | 24 | 303 | 1.6 | 6.4 | 0.00 | 0.00 | 0.00 | 55 | 1016.8 |
| 20260507011813 | 24 | 260 | 0.0 | 6.4 | 0.00 | 0.00 | 0.00 | 54 | 1016.8 |
| 20260507010815 | 24 | 339 | 4.8 | 8.0 | 0.00 | 0.00 | 0.00 | 55 | 1016.8 |
| 20260507005841 | 24 | 253 | 3.2 | 8.0 | 0.00 | 0.00 | 0.00 | 54 | 1016.8 |
| 20260507004801 | 24 | 8 | 1.6 | 6.4 | 0.00 | 0.00 | 0.00 | 56 | 1016.9 |
| 20260507003803 | 23 | 265 | 3.2 | 14.5 | 0.00 | 0.00 | 0.00 | 54 | 1017.0 |
| 20260507002819 | 23 | 302 | 0.0 | 9.7 | 0.00 | 0.00 | 0.00 | 56 | 1016.9 |
| 20260507001804 | 23 | 357 | 4.8 | 16.1 | 0.00 | 0.00 | 0.00 | 57 | 1016.9 |
| 20260507000807 | 23 | 205 | 4.8 | 12.9 | 0.00 | 0.00 | 0.00 | 56 | 1017.1 |
| 20260506235802 | 24 | 341 | 6.4 | 14.5 | 0.00 | 0.00 | 0.00 | 55 | 1017.1 |
| 20260506234804 | 24 | 260 | 4.8 | 12.9 | 0.00 | 0.00 | 0.00 | 55 | 1017.1 |
| 20260506233806 | 23 | 290 | 8.0 | 11.3 | 0.00 | 0.00 | 0.00 | 56 | 1017.2 |
| 20260506232804 | 23 | 316 | 4.8 | 16.1 | 0.00 | 0.00 | 0.00 | 54 | 1017.3 |
| 20260506231805 | 24 | 336 | 4.8 | 12.9 | 0.00 | 0.00 | 0.00 | 56 | 1017.4 |
| 20260506230825 | 23 | 326 | 6.4 | 16.1 | 0.00 | 0.00 | 0.00 | 56 | 1017.6 |
| 20260506225819 | 24 | 255 | 6.4 | 17.7 | 0.00 | 0.00 | 0.00 | 55 | 1017.8 |
| 20260506224800 | 23 | 134 | 1.6 | 12.9 | 0.00 | 0.00 | 0.00 | 56 | 1017.9 |
| 20260506223802 | 23 | 75 | 8.0 | 17.7 | 0.00 | 0.00 | 0.00 | 55 | 1018.0 |
| 20260506222818 | 23 | 41 | 4.8 | 12.9 | 0.00 | 0.00 | 0.00 | 55 | 1018.1 |
| 20260506221804 | 23 | 107 | 1.6 | 19.3 | 0.00 | 0.00 | 0.00 | 56 | 1018.3 |
| 20260506220805 | 22 | 260 | 1.6 | 16.1 | 0.00 | 0.00 | 0.00 | 56 | 1018.5 |
| 20260506215802 | 23 | 8 | 9.7 | 17.7 | 0.00 | 0.00 | 0.00 | 57 | 1018.5 |
| 20260506214806 | 22 | 327 | 6.4 | 16.1 | 0.00 | 0.00 | 0.00 | 57 | 1018.7 |
| 20260506213811 | 22 | 314 | 4.8 | 16.1 | 0.00 | 0.00 | 0.00 | 59 | 1018.7 |
| 20260506212812 | 22 | 270 | 4.8 | 16.1 | 0.00 | 0.00 | 0.00 | 58 | 1018.9 |
| 20260506211812 | 22 | 22 | 1.6 | 16.1 | 0.00 | 0.00 | 0.00 | 56 | 1018.9 |
| 20260506210815 | 22 | 291 | 4.8 | 12.9 | 0.00 | 0.00 | 0.00 | 60 | 1019.1 |
| 20260506205817 | 22 | 251 | 6.4 | 12.9 | 0.00 | 0.00 | 0.00 | 57 | 1019.3 |
| 20260506204818 | 22 | 51 | 3.2 | 12.9 | 0.00 | 0.00 | 0.00 | 57 | 1019.3 |
| 20260506203801 | 22 | 344 | 3.2 | 14.5 | 0.00 | 0.00 | 0.00 | 60 | 1019.6 |
| 20260506202808 | 21 | 193 | 1.6 | 9.7 | 0.00 | 0.00 | 0.00 | 58 | 1019.6 |
| 20260506201808 | 21 | 68 | 1.6 | 6.4 | 0.00 | 0.00 | 0.00 | 60 | 1019.7 |
| 20260506200812 | 21 | 325 | 1.6 | 8.0 | 0.00 | 0.00 | 0.00 | 62 | 1019.8 |
| 20260506195814 | 21 | 230 | 4.8 | 8.0 | 0.00 | 0.00 | 0.00 | 61 | 1019.8 |
| 20260506194817 | 21 | 21 | 4.8 | 14.5 | 0.00 | 0.00 | 0.00 | 61 | 1019.8 |
| 20260506193818 | 21 | 353 | 4.8 | 9.7 | 0.00 | 0.00 | 0.00 | 61 | 1020.1 |
| 20260506192820 | 20 | 265 | 4.8 | 8.0 | 0.00 | 0.00 | 0.00 | 62 | 1020.3 |
| 20260506191803 | 20 | 11 | 1.6 | 9.7 | 0.00 | 0.00 | 0.00 | 65 | 1020.3 |
| 20260506190803 | 20 | 239 | 4.8 | 11.3 | 0.00 | 0.00 | 0.00 | 63 | 1020.4 |
| 20260506185805 | 20 | 347 | 4.8 | 9.7 | 0.00 | 0.00 | 0.00 | 65 | 1020.4 |
| 20260506184810 | 20 | 299 | 3.2 | 9.7 | 0.00 | 0.00 | 0.00 | 65 | 1020.6 |
| 20260506183806 | 20 | 146 | 1.6 | 8.0 | 0.00 | 0.00 | 0.00 | 64 | 1020.6 |
| 20260506182807 | 20 | 321 | 1.6 | 9.7 | 0.00 | 0.00 | 0.00 | 65 | 1020.7 |
| 20260506181806 | 19 | 109 | 1.6 | 4.8 | 0.00 | 0.00 | 0.00 | 68 | 1020.7 |
| 20260506180801 | 18 | 154 | 3.2 | 6.4 | 0.00 | 0.00 | 0.00 | 68 | 1020.7 |
| 20260506175826 | 18 | 187 | 1.6 | 8.0 | 0.00 | 0.00 | 0.00 | 68 | 1020.7 |
| 20260506174804 | 18 | 246 | 1.6 | 8.0 | 0.00 | 0.00 | 0.00 | 71 | 1020.6 |
| 20260506173818 | 18 | 296 | 1.6 | 4.8 | 0.00 | 0.00 | 0.00 | 72 | 1020.6 |
| 20260506172803 | 17 | 253 | 3.2 | 4.8 | 0.00 | 0.00 | 0.00 | 73 | 1020.6 |
| 20260506171825 | 17 | 184 | 0.0 | 4.8 | 0.00 | 0.00 | 0.00 | 72 | 1020.7 |
| 20260506170802 | 17 | 124 | 1.6 | 4.8 | 0.00 | 0.00 | 0.00 | 74 | 1020.7 |
| 20260506165803 | 17 | 282 | 3.2 | 4.8 | 0.00 | 0.00 | 0.00 | 76 | 1020.6 |
| 20260506164825 | 16 | 178 | 1.6 | 6.4 | 0.00 | 0.00 | 0.00 | 76 | 1020.6 |
| 20260506163804 | 16 | 353 | 1.6 | 4.8 | 0.00 | 0.00 | 0.00 | 76 | 1020.6 |
| 20260506162826 | 16 | 195 | 1.6 | 6.4 | 0.00 | 0.00 | 0.00 | 76 | 1020.6 |
| 20260506161810 | 16 | 176 | 3.2 | 4.8 | 0.00 | 0.00 | 0.00 | 76 | 1020.6 |
| 20260506160805 | 16 | 172 | 3.2 | 6.4 | 0.00 | 0.00 | 0.00 | 77 | 1020.6 |
| 20260506155807 | 15 | 193 | 4.8 | 6.4 | 0.00 | 0.00 | 0.00 | 78 | 1020.5 |
| 20260506154808 | 15 | 196 | 3.2 | 8.0 | 0.00 | 0.00 | 0.00 | 78 | 1020.6 |
| 20260506153824 | 15 | 176 | 3.2 | 6.4 | 0.00 | 0.00 | 0.00 | 79 | 1020.5 |
| 20260506152806 | 15 | 136 | 1.6 | 6.4 | 0.00 | 0.00 | 0.00 | 79 | 1020.5 |
| 20260506151807 | 15 | 118 | 4.8 | 8.0 | 0.00 | 0.00 | 0.00 | 80 | 1020.4 |
| 20260506150811 | 15 | 181 | 1.6 | 4.8 | 0.00 | 0.00 | 0.00 | 81 | 1020.5 |
| 20260506145811 | 15 | 151 | 3.2 | 8.0 | 0.00 | 0.00 | 0.00 | 81 | 1020.4 |
| 20260506144816 | 14 | 199 | 3.2 | 6.4 | 0.00 | 0.00 | 0.00 | 81 | 1020.4 |
| 20260506143819 | 14 | 199 | 3.2 | 9.7 | 0.00 | 0.00 | 0.00 | 82 | 1020.4 |
| 20260506142818 | 14 | 178 | 3.2 | 6.4 | 0.00 | 0.00 | 0.00 | 82 | 1020.5 |
| 20260506141801 | 14 | 189 | 1.6 | 6.4 | 0.00 | 0.00 | 0.00 | 82 | 1020.4 |
| 20260506140807 | 14 | 201 | 0.0 | 4.8 | 0.00 | 0.00 | 0.00 | 82 | 1020.3 |
| 20260506135806 | 14 | 153 | 0.0 | 4.8 | 0.00 | 0.00 | 0.00 | 82 | 1020.1 |
| 20260506134808 | 14 | 164 | 1.6 | 6.4 | 0.00 | 0.00 | 0.00 | 82 | 1020.0 |
| 20260506133812 | 14 | 182 | 4.8 | 6.4 | 0.00 | 0.00 | 0.00 | 82 | 1019.8 |
| 20260506132815 | 14 | 135 | 0.0 | 9.7 | 0.00 | 0.00 | 0.00 | 82 | 1019.8 |
| 20260506131815 | 14 | 128 | 3.2 | 6.4 | 0.00 | 0.00 | 0.00 | 82 | 1019.8 |
| 20260506130800 | 13 | 163 | 1.6 | 6.4 | 0.00 | 0.00 | 0.00 | 82 | 1019.8 |
| 20260506125801 | 13 | 137 | 3.2 | 8.0 | 0.00 | 0.00 | 0.00 | 82 | 1019.8 |
| 20260506124817 | 13 | 124 | 1.6 | 6.4 | 0.00 | 0.00 | 0.00 | 82 | 1019.8 |
| 20260506123804 | 13 | 141 | 1.6 | 9.7 | 0.00 | 0.00 | 0.00 | 82 | 1019.7 |
| 20260506122806 | 14 | 168 | 0.0 | 6.4 | 0.00 | 0.00 | 0.00 | 83 | 1019.6 |
| 20260506121807 | 14 | 140 | 1.6 | 6.4 | 0.00 | 0.00 | 0.00 | 83 | 1019.5 |
| 20260506120811 | 14 | 155 | 4.8 | 11.3 | 0.00 | 0.00 | 0.00 | 82 | 1019.5 |
| 20260506115815 | 14 | 125 | 1.6 | 9.7 | 0.00 | 0.00 | 0.00 | 82 | 1019.3 |
| 20260506114819 | 14 | 123 | 3.2 | 6.4 | 0.00 | 0.00 | 0.00 | 82 | 1019.3 |
| 20260506113840 | 14 | 141 | 3.2 | 6.4 | 0.00 | 0.00 | 0.00 | 82 | 1019.4 |
| 20260506112803 | 14 | 143 | 0.0 | 6.4 | 0.00 | 0.00 | 0.00 | 82 | 1019.4 |
| 20260506111804 | 14 | 114 | 0.0 | 6.4 | 0.00 | 0.00 | 0.00 | 82 | 1019.3 |
| 20260506110803 | 14 | 128 | 4.8 | 8.0 | 0.00 | 0.00 | 0.00 | 82 | 1019.2 |
| 20260506105808 | 14 | 132 | 1.6 | 4.8 | 0.00 | 0.00 | 0.00 | 82 | 1019.0 |
| 20260506104832 | 14 | 139 | 1.6 | 6.4 | 0.00 | 0.00 | 0.00 | 82 | 1019.0 |
| 20260506103809 | 14 | 114 | 3.2 | 6.4 | 0.00 | 0.00 | 0.00 | 82 | 1018.9 |
| 20260506102813 | 14 | 95 | 1.6 | 8.0 | 0.00 | 0.00 | 0.00 | 81 | 1018.9 |
| 20260506101818 | 14 | 144 | 4.8 | 9.7 | 0.00 | 0.00 | 0.00 | 81 | 1018.8 |
| 20260506100800 | 14 | 133 | 6.4 | 8.0 | 0.00 | 0.00 | 0.00 | 81 | 1018.8 |
| 20260506095803 | 14 | 124 | 3.2 | 11.3 | 0.00 | 0.00 | 0.00 | 81 | 1018.8 |
| 20260506094809 | 14 | 124 | 3.2 | 8.0 | 0.00 | 0.00 | 0.00 | 81 | 1018.7 |
| 20260506093807 | 14 | 131 | 3.2 | 6.4 | 0.00 | 0.00 | 0.00 | 80 | 1018.7 |
| 20260506092809 | 15 | 112 | 3.2 | 6.4 | 0.00 | 0.00 | 0.00 | 80 | 1018.7 |
| 20260506091814 | 15 | 143 | 1.6 | 8.0 | 0.00 | 0.00 | 0.00 | 80 | 1018.7 |
| 20260506090800 | 15 | 116 | 4.8 | 11.3 | 0.00 | 0.00 | 0.00 | 80 | 1018.7 |
| 20260506085817 | 15 | 167 | 4.8 | 9.7 | 0.00 | 0.00 | 0.00 | 80 | 1018.6 |
| 20260506084822 | 15 | 143 | 4.8 | 8.0 | 0.00 | 0.00 | 0.00 | 80 | 1018.7 |
| 20260506083803 | 15 | 114 | 4.8 | 6.4 | 0.00 | 0.00 | 0.00 | 80 | 1018.7 |
| 20260506082822 | 15 | 139 | 0.0 | 4.8 | 0.00 | 0.00 | 0.00 | 80 | 1018.8 |
| 20260506081804 | 15 | 140 | 1.6 | 6.4 | 0.00 | 0.00 | 0.00 | 80 | 1018.8 |
| 20260506080807 | 15 | 158 | 0.0 | 4.8 | 0.00 | 0.00 | 0.00 | 80 | 1018.7 |
| 20260506072808 | 15 | 182 | 0.0 | 3.2 | 0.00 | 0.03 | 0.00 | 80 | 1018.3 |
| 20260506071814 | 15 | 180 | 3.2 | 6.4 | 0.00 | 0.03 | 0.00 | 80 | 1018.3 |
| 20260506070835 | 15 | 186 | 1.6 | 4.8 | 0.00 | 0.03 | 0.00 | 79 | 1018.2 |
| 20260506061816 | 15 | 180 | 0.0 | 4.8 | 0.00 | 0.13 | 0.03 | 79 | 1017.8 |
| 20260506060819 | 15 | 198 | 1.6 | 8.0 | 0.00 | 0.13 | 0.03 | 78 | 1017.7 |
| 20260506050818 | 16 | 184 | 4.8 | 11.3 | 0.00 | 0.38 | 0.03 | 77 | 1017.3 |
| 20260506044802 | 16 | 182 | 3.2 | 6.4 | 0.00 | 0.66 | 0.03 | 77 | 1017.0 |
| 20260506043821 | 16 | 195 | 3.2 | 8.0 | 0.00 | 0.66 | 0.03 | 78 | 1017.0 |
| 20260506042811 | 16 | 180 | 0.0 | 6.4 | 0.00 | 0.66 | 0.03 | 77 | 1016.9 |
| 20260506041829 | 16 | 157 | 0.0 | 6.4 | 0.00 | 0.66 | 0.03 | 77 | 1016.6 |
| 20260506040803 | 16 | 161 | 4.8 | 11.3 | 0.00 | 0.66 | 0.03 | 77 | 1016.5 |
| 20260506035837 | 17 | 132 | 4.8 | 11.3 | 0.00 | 1.24 | 0.03 | 76 | 1016.3 |
| 20260506034814 | 17 | 126 | 4.8 | 8.0 | 0.00 | 1.24 | 0.03 | 76 | 1016.4 |
| 20260506033828 | 17 | 139 | 4.8 | 8.0 | 0.00 | 1.24 | 0.03 | 75 | 1016.4 |
| 20260506032805 | 17 | 141 | 3.2 | 9.7 | 0.00 | 1.24 | 0.03 | 75 | 1016.3 |
| 20260506031804 | 17 | 110 | 3.2 | 9.7 | 0.00 | 1.24 | 0.03 | 74 | 1016.2 |
| 20260506030819 | 17 | 168 | 0.0 | 4.8 | 0.00 | 1.24 | 0.03 | 73 | 1015.9 |
| 20260506025814 | 17 | 136 | 4.8 | 11.3 | 0.00 | 1.47 | 0.03 | 73 | 1015.8 |
| 20260506024809 | 17 | 172 | 4.8 | 12.9 | 0.00 | 1.47 | 0.03 | 72 | 1015.7 |
| 20260506023842 | 17 | 155 | 3.2 | 12.9 | 0.00 | 1.47 | 0.03 | 72 | 1015.6 |
| 20260506022818 | 17 | 184 | 6.4 | 16.1 | 0.00 | 1.47 | 0.03 | 72 | 1015.4 |
| 20260506021818 | 17 | 165 | 4.8 | 12.9 | 0.00 | 1.47 | 0.03 | 72 | 1015.2 |
| 20260506020811 | 17 | 120 | 8.0 | 17.7 | 0.00 | 1.47 | 0.03 | 71 | 1015.2 |
| 20260506015811 | 17 | 124 | 8.0 | 12.9 | 0.00 | 1.70 | 0.03 | 70 | 1015.2 |
| 20260506014839 | 18 | 182 | 8.0 | 16.1 | 0.00 | 1.70 | 0.03 | 69 | 1015.2 |
| 20260506013815 | 18 | 97 | 8.0 | 12.9 | 0.00 | 1.70 | 0.03 | 68 | 1015.1 |